Regional Weather Roundup
Issued by NWS

Home | Current Version | Previous Version | Graphics & Text | Print | Product List | Glossary On
Versions: 1 2 3 4 5 6 7 8 9 10 11 12 13 14 15 16 17 18 19 20 21 22 23 24 25 26 27 28 29 30 31 32 33 34 35 36 37 38 39 40 41 42 43 44 45 46 47 48 49 50
000
ASUS43 KLSX 111910
RWRMO

WEATHER SUMMARY FOR MISSOURI
NATIONAL WEATHER SERVICE SPRINGFIELD MO
100 PM CST THU FEB 11 2016

NOTE: "FAIR" INDICATES FEW OR NO CLOUDS BELOW 12,000 FEET WITH NO
       SIGNIFICANT WEATHER AND/OR OBSTRUCTIONS TO VISIBILITY.
       CURRENT SKY AND/OR WEATHER CONDITIONS ARE NOT AVAILABLE FOR
       CHILLICOTHE AND FARMINGTON.

MOZ001>031-035>038-043-044-053-054-112000-
...NORTHERN AND WESTERN MISSOURI...

CITY           SKY/WX    TMP DP  RH WIND       PRES   REMARKS
KANSAS CTY INT PTSUNNY   34  21  59 NE3       30.26F
KANSAS C DTWN  MOSUNNY   35  20  54 E5        30.28F
LEE`S SUMMIT   SUNNY     33  20  58 VRB5      30.25F WCI  29
ST JOSEPH      SUNNY     31  17  56 CALM      30.29F
CHILLICOTHE      N/A     31  13  47 VRB5      30.31F WCI  26
KIRKSVILLE     SUNNY     22   5  48 E3        30.31F

$$
MOZ066>068-077>081-088>096-101>105-112000-
...SOUTHWEST MISSOURI...

CITY           SKY/WX    TMP DP  RH WIND       PRES   REMARKS
SPRINGFIELD    SUNNY     44  16  32 NE3       30.18F
JOPLIN         SUNNY     43  22  43 NE10      30.20F

$$
MOZ032>034-039>042-045>050-055>058-069>072-112000-
...CENTRAL MISSOURI...

CITY           SKY/WX    TMP DP  RH WIND       PRES   REMARKS
COLUMBIA       SUNNY     32  18  56 NE5       30.28S WCI  27
JEFFERSON CITY SUNNY     32  18  56 CALM      30.28F
ROLLA          SUNNY     33  21  61 VRB7      30.21F WCI  27
SEDALIA        SUNNY     37  18  46 NE9       30.28F
WHITEMAN AFB   PTSUNNY   35  19  53 NE7       30.24F WCI  29
WARRENSBURG    SUNNY     34  19  55 E9        30.26F WCI  26
OSAGE BEACH    SUNNY     37  19  48 E8        30.24F

$$
MOZ051-052-059>065-112000-
...EAST CENTRAL MISSOURI...

CITY           SKY/WX    TMP DP  RH WIND       PRES   REMARKS
ST LOUIS INTL  MOSUNNY   28  12  51 CALM      30.30F
SPIRIT OF STL  MOSUNNY   28  12  51 E5        30.29F WCI  23
ST CHARLES     SUNNY     27  10  49 N7        30.31F WCI  19

$$
MOZ072>076-082>087-097>100-106>115-112000-
...SOUTH CENTRAL AND SOUTHEAST MISSOURI...

CITY           SKY/WX    TMP DP  RH WIND       PRES   REMARKS
CAPE GIRARDEAU SUNNY     36  21  54 E10       30.28F WCI  28
FARMINGTON     SUNNY     34  20  56 N7        30.26F WCI  28
POPLAR BLUFF   SUNNY     38  21  50 NE13      30.25F WCI  30
WEST PLAINS    SUNNY     43  17  35 NE8       30.20F

$$



USA.gov is the U.S. government's official web portal to all federal, state and local government web resources and services.